Weather in Krasny Rog

Russia / Bryansk Oblast     52°56′51″N   33°44′25″E
temp.,
°C
wind,
m/s
gust,
m/s
humid.,
%
clouds,
%
prec.,
mm/h
press.,
hPa
HPBL,
m
17 april, sat
sat1700:00+6ese34895 0.0 101782
03:00+5ese24945 0.0 101780
06:00+4ese25947 0.0 101891
09:00+8ese237766 0.0 1019449
12:00+11ssw2164100 0.2 10171159
15:00+7sw5694100 8.0 1017448
18:00+6ssw5893100 5.6 1016634
21:00+5ssw5992100 7.4 1016506
18 april, sun
sun1800:00+5sse41090100 1.1 1016842
03:00+5se3694100 1.5 1017611
06:00+5ese259265 0.7 1017154
09:00+7ese467772 0.8 1018955
12:00+10ese466087 0.4 10171605
15:00+9ese346490 0.9 10181132
18:00+9sse337158 0.4 1018542
21:00+5e228815 0.5 101915
19 april, mon
mon1900:00+4ene2492100 0.0 1019105
03:00+5ne51090100 0.0 1018430
06:00+5ne51092100 0.3 1018457
09:00+6ene5991100 0.3 1018694
12:00+7ene6990100 0.1 1018938
15:00+8ene6984100 0.3 1018892
18:00+8ene5885100 0.3 1017964
21:00+7ene4996100 8.0 1016922
20 april, tue
tue2000:00+6ene51293100 5.4 1015760
03:00+6ene6119498 6.0 1013543
06:00+6ene61191100 0.0 1012735
09:00+7ene61192100 0.1 1011630
12:00+7ne61191100 0.1 1009589
15:00+6nne71393100 1.6 1004636
18:00+5nne81495100 7.3 999857
21:00+5n81496100 15.8 993671
21 april, wed
wed2100:00+4nw61097100 9.3 991419
03:00+1wsw71498100 14.2 994498
06:00+2sw81497100 1.7 997878
09:00+4sw81592100 1.9 10001322
12:00+5sw81393100 0.4 10041112
15:00+9sw8137378 0.7 10071451
18:00+9sw6107328 0.5 10091068
21:00+6ssw41088100 0.6 1012229